Location: Binowo
(53.3065°N, 14.6484°E)
Time: 06:08:24
(UTC+00:00)

Daily predictions for brighter satellites

Satellite Brightness Start Highest point End
(mag) Time Altitude Azimuth Time Altitude Azimuth Time Altitude Azimuth
Cosmos 2219 Rocket 3.1 16:29:47 10° SSE 16:34:26 28° ESE 16:39:06 10° NE
Meteor 2-12 Rocket 4.4 16:28:48 10° N 16:34:53 68° ENE 16:40:54 10° SSE
ARGOS 4.0 16:30:03 10° S 16:35:20 58° W 16:40:40 10° NNW
SKYMED 2 4.4 16:32:09 10° NNE 16:36:02 30° E 16:39:51 10° SSE
Cosmos 1745 Rocket 4.4 16:30:35 10° N 16:36:28 41° ENE 16:42:14 10° SE
CZ-4B R/B 4.0 16:32:06 10° ESE 16:36:47 30° ENE 16:41:33 10° N
Cosmos 2360 Rocket 2.4 16:32:35 10° S 16:38:05 56° ESE 16:43:38 10° NE
BREEZE-M DEB (TANK) 3.9 16:35:54 10° WSW 16:38:43 32° S 16:44:04 10° ESE
Cosmos 1844 4.5 16:33:28 10° NW 16:39:12 61° WSW 16:44:50 10° SSE
Okean O Rocket 3.0 16:36:18 10° ESE 16:39:27 19° ENE 16:42:36 10° NNE
BlueWalker 3 2.2 16:35:58 10° W 16:39:51 73° SSW 16:43:43 10° ESE
YAOGAN 1 3.5 16:36:15 10° ESE 16:39:55 27° ENE 16:43:35 10° N
CZ-4B DEB 4.4 16:36:54 10° SE 16:42:11 53° ENE 16:47:31 10° N
Lacrosse 5 1.9 16:37:24 10° WSW 16:42:32 85° SSE 16:47:40 10° ENE
DELTA 2 DEB (DPAF) 4.2 16:38:33 10° NNE 16:42:54 55° ESE 16:47:13 10° S
Cosmos 2058 Rocket 3.2 16:38:41 10° N 16:43:02 54° ENE 16:47:23 10° SSE
Cosmos-2242 4.3 16:40:56 10° NNE 16:44:01 19° ENE 16:47:05 10° ESE
Cosmos 1606 3.6 16:41:25 10° N 16:44:47 28° ENE 16:48:07 10° SE
Cosmos 1356 4.5 16:43:38 10° NNE 16:46:00 20° ENE 16:48:20 10° ESE
Genesis I 3.3 16:43:54 10° SSW 16:47:50 69° SE 16:51:47 10° NE
Meteor PRIRODA 4.1 16:46:51 10° S 16:50:22 65° WSW 16:53:56 10° NNW
Cosmos 2278 Rocket 2.7 16:46:05 10° NNW 16:51:26 40° NE 16:56:44 10° ESE
CZ-4B R/B 2.8 16:47:39 10° SSE 16:51:31 86° WSW 16:55:12 10° NNW
IRIDIUM 104 4.4 16:47:59 10° N 16:53:08 55° E 16:58:15 10° SSE
Cosmos 1709 Rocket 4.5 16:48:26 10° N 16:54:04 36° ENE 16:59:39 10° SE
Cosmos 2322 Rocket 2.3 16:48:54 10° SSW 16:54:32 86° WNW 17:00:12 10° NNE
SL-08 R/B 4.5 16:48:21 10° N 16:54:40 74° ENE 17:00:58 10° SSE
CZ-2C R/B 4.2 16:51:01 10° N 16:56:08 38° WNW 17:01:16 10° SW
Lacrosse 5 rocket 3.9 16:54:58 10° W 16:57:27 18° SW 16:59:57 10° S
Cosmos 1606 Rocket 4.4 16:53:15 10° NNW 16:57:29 54° W 17:01:43 10° S
Cosmos 1633 2.2 16:54:36 10° S 16:57:55 69° E 17:01:16 10° NNE
Cosmos 2369 Rocket 3.9 16:58:22 10° NNW 17:01:45 16° NNE 17:04:59 10° NE
Cosmos 2208 Rocket 4.5 16:57:11 10° NNW 17:02:03 38° NE 17:06:55 10° ESE
IRIDIUM 114 4.3 16:57:05 10° N 17:02:18 64° E 17:07:29 10° SSE
SJ-6B 4.4 17:01:06 12° E 17:03:11 17° ENE 17:05:50 10° NNE
Cosmos 1943 Rocket 3.3 16:58:28 10° NNW 17:03:11 26° NE 17:07:06 13° E
Cosmos 1553 Rocket 4.0 16:57:33 10° S 17:03:34 63° E 17:09:43 10° NNE
Cosmos 676 Rocket 4.3 16:59:22 10° SW 17:04:38 71° WNW 17:09:53 10° NNE
ATLAS CENTAUR R/B 3.3 17:01:45 10° WNW 17:05:32 25° NNW 17:09:10 10° NE
Meteor 1-11 4.5 17:00:42 10° SSW 17:06:31 80° WNW 17:12:18 10° NNE
In-Cosmos 22 Rocket 4.3 17:00:52 10° S 17:06:43 88° ESE 17:12:33 10° NNE
Cosmos 2333 Rocket 2.3 17:01:43 10° SSW 17:07:17 62° ESE 17:12:55 10° NE
Cosmos 1570 Rocket 4.2 17:03:06 10° NNW 17:08:22 51° ENE 17:13:32 10° SE
Iridium 2 4.3 17:07:59 10° NNE 17:11:15 30° ENE 17:14:31 10° SE
IRIDIUM 103 4.3 17:06:15 10° N 17:11:30 75° E 17:16:43 10° S
MOS 1-B 4.4 17:07:09 10° SE 17:12:47 56° ENE 17:18:28 10° N
SL-16 R/B 3.0 17:08:04 10° SW 17:13:36 52° NW 17:19:10 10° NNE
Cosmos 44 Rocket 3.3 17:11:33 10° SSW 17:16:11 60° SE 17:20:24 13° NE
Cosmos 1892 Rocket 3.6 17:12:41 10° S 17:17:04 87° W 17:21:29 10° N
Cosmos 1980 Rocket 4.1 17:13:32 10° W 17:18:03 23° NNW 17:22:35 10° NNE
Cosmos 1602 Rocket 4.5 17:14:44 10° SE 17:18:18 26° E 17:21:53 10° NNE
CZ-4C R/B 3.2 17:14:54 10° NNE 17:18:35 55° ESE 17:22:05 10° S
Gblst 52 Del rocket 4.2 17:13:01 10° W 17:18:40 75° S 17:22:55 17° E
IGS 5A 4.3 17:16:09 10° ESE 17:19:39 28° ENE 17:23:11 10° N
COSMOS 2428 3.2 17:16:44 10° S 17:21:55 38° ESE 17:27:05 10° NE
Cosmos 2333 4.2 17:17:01 10° SSW 17:22:38 75° ESE 17:28:20 10° NE
COSMO-SKYMED 1 2.5 17:19:48 10° NNE 17:24:11 81° ESE 17:28:32 10° SSW
COSMOS 2455 4.4 17:23:04 10° W 17:28:09 27° NNW 17:33:17 10° NE
USA 281 4.0 17:21:56 10° NNE 17:28:16 51° NW 17:34:34 10° WSW
SL-4 R/B 3.5 17:26:05 10° W 17:29:04 26° SSW 17:32:12 10° SSE
IRIDIUM 106 4.5 17:24:32 10° N 17:29:47 81° W 17:35:01 10° S
Cosmos 1812 Rocket 3.8 17:26:31 10° N 17:30:52 49° ENE 17:35:10 10° SSE
USA 215 3.9 17:25:47 10° SE 17:32:12 55° SW 17:38:40 10° WNW
Cosmos 1758 Rocket 4.2 17:29:26 10° SSE 17:33:17 31° E 17:37:10 10° NNE
Cosmos 1825 3.6 17:29:50 10° SW 17:33:18 38° WNW 17:36:49 10° N
CZ-2C R/B 4.0 17:32:36 10° NNE 17:36:14 40° E 17:46:34 10° SSE
Meteor 2-2 Rocket 4.4 17:36:14 10° N 17:41:44 48° ENE 17:47:16 10° SE
S3M 4.0 17:35:52 10° S 17:42:13 72° E 17:48:33 10° NNE
Cosmos 2322 3.7 17:37:08 10° SSW 17:42:48 66° ESE 17:48:29 10° NE
Cosmos 1626 Rocket 3.4 17:42:33 10° S 17:46:51 69° E 17:51:12 10° NNE
Lacrosse 4 Rocket 2.1 17:50:54 10° NNW 17:54:55 35° NE 17:55:31 33° ENE
CZ-4 R/B 1.2 17:51:17 10° SSE 17:55:21 81° ENE 17:59:22 10° NNW
HJ-1C 2.6 17:56:20 84° W 17:56:20 84° W 17:58:54 10° NNW
Cosmos 1461 4.4 17:52:38 10° W 17:56:43 35° NNW 17:59:54 16° NNE
DMSP B5D1-3 4.5 17:51:45 10° NNE 17:56:50 59° ESE 18:01:53 10° S
Cosmos 2221 3.8 17:56:38 10° N 17:59:11 24° NE 17:59:11 24° NE
Resurs 01 Rocket 3.1 18:02:32 21° NE 18:02:32 21° NE 18:04:48 10° N
USA 186 3.3 18:04:16 24° NNE 18:04:16 24° NNE 18:05:51 10° N
Cosmos 2058 2.9 18:06:45 10° S 18:10:50 58° E 18:12:09 38° NE
ATLAS 5 CENTAUR R/B 2.7 18:08:34 10° NW 18:12:55 37° NNE 18:13:56 34° NE
Cosmos 2315 Rocket 3.9 18:08:14 10° S 18:14:35 77° E 18:20:59 10° NNE
Okean O Rocket 1.8 18:10:54 10° S 18:15:18 73° WSW 18:19:46 10° NNW
YAOGAN 1 3.7 18:11:42 10° S 18:15:49 44° W 18:19:59 10° NNW
CZ-4B R/B 3.8 18:11:43 10° S 18:17:03 59° WSW 18:22:32 10° NNW
Cosmos 1932 4.4 18:10:45 10° SW 18:17:11 77° SE 18:21:06 26° NE
Cosmos 2219 Rocket 2.5 18:12:25 10° SW 18:17:58 66° NW 18:23:08 12° NNE
BlueWalker 3 3.7 18:14:46 10° W 18:18:07 27° SW 18:19:40 21° S
Cosmos 2297 4.2 18:13:41 10° NNW 18:19:06 40° NE 18:19:50 38° ENE
Cosmos 909 Rocket 4.2 18:12:18 10° NW 18:19:50 69° NE 18:22:33 37° ESE
Feng Yun 1-1 Rocket 4.3 18:15:29 10° SSE 18:20:58 78° WSW 18:26:25 10° NNW
Cosmos-2242 3.5 18:17:43 10° NNW 18:21:54 60° W 18:26:05 10° S
Cosmos 2360 Rocket 3.5 18:17:07 10° WSW 18:22:21 37° NW 18:27:39 10° NNE
Lacrosse 5 2.2 18:20:45 10° W 18:25:49 57° N 18:27:06 44° NE
Okean 1-7 Rocket 4.3 18:21:36 10° SSW 18:25:59 56° WNW 18:30:26 10° N
Okean-O 2.7 18:28:31 58° NE 18:28:31 58° NE 18:32:31 10° N
Cosmos 773 Rocket 4.1 18:24:14 10° NNW 18:29:21 54° ENE 18:29:34 53° ENE
Cosmos 1346 Rocket 3.7 18:26:57 10° N 18:29:29 37° N 18:29:29 37° N
BREEZE-M DEB (TANK) 3.3 18:23:29 10° WSW 18:32:59 47° S 18:33:28 45° SSE
Cosmos 2237 Rocket 2.3 18:28:39 10° S 18:33:55 52° ESE 18:33:55 52° ESE
SPOT 1/Viking Rocket 3.8 18:35:01 49° NE 18:35:01 49° NE 18:39:32 10° N
Cosmos 1441 Rocket 4.1 18:31:38 10° N 18:34:16 40° N 18:34:16 40° N
Cosmos 2278 Rocket 2.9 18:30:13 10° NW 18:35:43 52° WSW 18:41:02 11° S
Cosmos 968 Rocket 3.7 18:31:58 10° SSW 18:37:12 72° WNW 18:41:10 18° NNE
SJ-6B 3.0 18:36:32 57° SSW 18:37:12 71° WSW 18:41:16 10° NNW
Cosmos 2322 Rocket 4.1 18:34:46 10° W 18:39:24 25° NW 18:44:03 10° NNE
IRS-1C Rocket 3.9 18:40:48 65° ESE 18:41:20 71° ENE 18:46:36 10° NNW
Resurs 1-3 3.5 18:44:19 84° WSW 18:44:20 84° WSW 18:48:45 10° NNW
ATLAS CENTAUR R/B 3.5 18:42:16 10° NW 18:45:24 18° N 18:45:28 18° N
Cosmos 1980 3.6 18:39:50 10° SSW 18:45:15 64° SE 18:45:15 64° SE
CSL-04 Debris 4.3 18:42:06 20° S 18:45:57 74° WSW 18:51:22 10° NNW
Cosmos 158 Rocket 4.1 18:41:12 10° NNW 18:45:49 58° NNE 18:45:49 58° NNE
CSL-04 Rocket 3.7 18:43:56 30° S 18:46:41 81° WSW 18:52:11 10° NNW
Cosmos 2369 Rocket 2.9 18:42:11 10° NNW 18:46:47 37° NNE 18:46:47 37° NNE
Cosmos 1943 Rocket 2.1 18:42:02 10° NNW 18:47:45 86° ENE 18:48:39 65° SE
Cosmos 2333 Rocket 3.6 18:46:45 10° WSW 18:51:56 35° NW 18:56:32 13° NNE
Cosmos 1356 Rocket 4.3 18:52:23 10° SW 18:56:13 45° WNW 18:56:49 41° NW
Cosmos 44 Rocket 4.5 18:53:32 10° W 18:57:57 37° NNW 18:59:07 32° N
SL-16 R/B 4.4 18:55:05 10° WNW 18:59:03 19° NNW 19:03:03 10° NNE
Cosmos 2074 Rocket 3.9 18:54:05 10° NNW 19:00:25 85° W 19:03:03 38° S
Cosmos 2184 Rocket 3.9 18:57:50 10° NNW 19:04:09 84° W 19:06:16 44° S
COSMOS 2428 3.4 19:00:33 10° SW 19:06:03 51° NW 19:09:08 25° NNE
Gblst 52 Del rocket 4.4 19:04:44 10° W 19:09:52 58° SSW 19:09:52 58° SSW
NOSS 0 Rocket 4.0 19:05:24 10° SW 19:11:40 78° NW 19:13:26 50° NNE
GP-B 4.5 19:17:13 34° NNW 19:17:13 34° NNW 19:19:59 10° N
COSMOS 2455 4.5 19:11:25 10° NW 19:16:04 22° N 19:16:52 22° NNE
Cosmos 2154 Rocket 3.9 19:10:29 10° NNW 19:16:53 87° W 19:17:22 78° S
MOS 1 4.5 19:19:09 62° N 19:19:09 62° N 19:23:51 10° NNW
CZ-4 R/B 4.5 19:28:48 10° WSW 19:30:45 13° W 19:32:44 10° WNW
Lacrosse 4 Rocket 3.4 19:29:29 10° NW 19:31:44 27° WNW 19:31:44 27° WNW
Resurs 01 Rocket 3.7 19:40:04 23° NNW 19:40:04 23° NNW 19:41:50 10° NNW
Cosmos 2285 Rocket 4.4 19:34:31 10° NNW 19:40:41 56° WSW 19:41:01 55° WSW
ATLAS 5 CENTAUR R/B 3.5 19:52:45 10° NW 19:55:18 33° NW 19:55:18 33° NW
Cosmos 2219 Rocket 4.3 19:58:47 10° W 20:03:02 21° NNW 20:04:53 18° N
Lacrosse 5 3.9 20:04:08 10° WNW 20:06:18 25° WNW 20:06:18 25° WNW
Cosmos 2237 Rocket 4.0 20:13:04 10° WSW 20:15:51 26° W 20:15:51 26° W
Cosmos 1943 Rocket 4.3 20:26:45 10° NW 20:30:12 20° W 20:30:12 20° W
Cosmos 2369 Rocket 4.1 20:26:13 10° NW 20:28:35 25° NW 20:28:35 25° NW
